Vertical_Velocity
7 -1 1 -2 -0 0 1 -2 -1 0 1 -1 1 2 1 2 0 -1 -0 1 2 -1
2 0 -2 4 5 18 4 1 1 2 0 -1 -2 1 0 0 1 1 1 -2 0 -0
1 -1 -1 -2 3 7 5 -0 -3 -0 1 1 0 1 -1 -1 -2 0 -1 -1 1 -1
1 2 1 0 0 1 -5 -2 1 -2 -2 0 -0 -1 0 -0 -3 3 -2 1 -1 1
0 0 3 2 1 -2 1 -1 1 -0 1 1 2 -1 1 -1 -3 1 2 1 -1 5
0 -0 1 0 -1 3 3 3 1 -1 0 -0 1 -1 -1 -1 1 2 0 2 -2 3
0 1 0 -1 2 4 2 1 3 7 5 3 2 1 2 2 1 3 5 11 6 3
-0 0 -0 0 1 0 6 -0 0 -2 3 8 7 7 2 3 2 4 3 1 1 -4
-0 1 1 2 1 -1 -2 3 3 4 3 2 1 -0 15 6 5 -2 3 4 -1 -7
-1 -3 -2 0 -1 1 0 -1 3 10 5 -0 -3 3 6 4 9 6 33 6 3 -0
4 2 2 1 1 1 2 0 2 0 1 -2 -4 2 3 8 1 -1 -3 -2 -4 1
-0 2 1 4 2 -3 -2 -2 2 -1 1 0 -3 1 2 7 3 1 0 1 1 2
-3 -2 2 5 8 9 3 1 -2 -0 2 -0 -2 1 6 3 1 1 1 -0 -2 -0
3 1 1 1 2 -0 2 2 1 1 1 2 -1 -3 4 -1 1 2 1 1 1 -1
Height
5757 5759 5762 5765 5768 5770 5773 5775 5777 5781 5784 5786 5788 5790 5791 5793 5795 5797 5798 5799 5799 5799
5750 5753 5756 5758 5761 5762 5765 5768 5771 5774 5775 5777 5779 5781 5783 5785 5786 5788 5790 5791 5791 5792
5744 5747 5750 5751 5754 5757 5758 5759 5762 5766 5767 5769 5771 5773 5774 5776 5778 5780 5782 5782 5782 5782
5739 5741 5744 5745 5748 5749 5751 5753 5755 5757 5758 5760 5763 5764 5767 5768 5769 5771 5772 5773 5773 5773
5731 5733 5736 5738 5741 5744 5745 5746 5748 5749 5751 5754 5755 5756 5758 5759 5759 5761 5762 5762 5763 5763
5724 5726 5729 5732 5733 5735 5736 5738 5739 5741 5743 5744 5746 5747 5748 5749 5750 5751 5752 5752 5752 5751
5717 5719 5720 5723 5724 5725 5727 5729 5731 5732 5733 5733 5735 5736 5738 5739 5739 5740 5741 5742 5741 5740
5706 5708 5710 5712 5714 5717 5718 5720 5721 5722 5723 5724 5724 5725 5726 5727 5728 5728 5728 5728 5728 5727
5694 5697 5699 5701 5703 5706 5708 5709 5710 5712 5712 5713 5714 5715 5715 5715 5715 5715 5715 5714 5714 5713
5682 5684 5687 5689 5692 5693 5695 5697 5699 5701 5701 5701 5702 5704 5705 5704 5703 5704 5704 5702 5701 5698
5670 5673 5676 5677 5679 5681 5683 5684 5686 5687 5688 5690 5691 5692 5693 5692 5690 5689 5688 5687 5686 5686
5659 5660 5662 5664 5666 5667 5669 5671 5673 5675 5676 5677 5677 5678 5679 5678 5676 5676 5675 5674 5673 5672
5644 5647 5650 5651 5653 5654 5656 5658 5659 5660 5661 5662 5662 5663 5663 5662 5661 5660 5659 5659 5658 5656
5631 5633 5635 5636 5638 5639 5641 5643 5644 5645 5646 5647 5648 5649 5648 5647 5646 5644 5643 5642 5641 5639